KBFIKPWT

Guest
Details From KBFI - Boeing Field King Co Intl
To KPWT - Bremerton National
Flight Number -
Tags Routegen
Created
Modified
Stats Distance 19 nm / 35 km
Max Altitude 0 ft / 0 m
Waypoints 2
Social Downloads 5
Likes 0
Share

Download

Looking for another format? Having issues loading an existing format? Contact us
Advertisement - Login to hide

Notes

None

Route

KBFI KPWT

ID Type Via Altitude (ft/m) Position (lat/lon) Dist (leg/tot) Name
O KBFI APT - 0 / 0 47.53802 / -122.30746 - / 0 nm
O KPWT APT - 0 / 0 47.48333 / -122.77138 19 / 19 nm

Altitude Profile

Advertisement - Login to hide

KBFI

Details ICAO KBFI (BFI)
Name Boeing Fld King Co Intl
Region United States
Timezone America/Los_Angeles (UTC-7.0)
Stats Elevation 21 ft / 6 m (AMSL)
Location 47.531100° -122.303000°
Runways 2
Magnetic Variation 15.230° E

METAR

KBFI 120353Z VRB03KT 10SM CLR 08/M03 A3032 RMK AO2 SLP268 T00781033

Decode

TAF

TAF KBFI 112320Z 1200/1224 32008KT P6SM FEW040 FM120400 00000KT P6SM SCT250 FM121800 32008KT P6SM SKC FM122100 32012G18KT P6SM SCT100

Decode

Departure Runways

ID Width Length Bearing (true/mag) Surface Threshold Overrun Markings Lighting
14L 100 ft / 30 m 3,712 ft / 1,131 m 150.28° / 135.05° ASPHALT 249 ft / 76 m 0 ft / 0 m VISUAL EDGE THRESHOLD REIL-OMNI
14R 200 ft / 61 m 10,006 ft / 3,050 m 150.28° / 135.05° ASPHALT 0 ft / 0 m 915 ft / 279 m PREC-APP EDGE THRESHOLD MALSF
32L 200 ft / 61 m 10,006 ft / 3,050 m 330.29° / 315.06° ASPHALT 889 ft / 271 m 190 ft / 58 m PREC-APP EDGE THRESHOLD REIL-OMNI
32R 100 ft / 30 m 3,712 ft / 1,131 m 330.29° / 315.06° ASPHALT 377 ft / 115 m 0 ft / 0 m VISUAL EDGE THRESHOLD REIL-OMNI

KPWT

Details ICAO KPWT (PWT)
Name Bremerton National
Region United States
Timezone America/Los_Angeles (UTC-7.0)
Stats Elevation 444 ft / 135 m (AMSL)
Location 47.490200° -122.765000°
Runways 1
Magnetic Variation 15.302° E

METAR

KPWT 120356Z AUTO 06011KT 10SM CLR 06/M05 A3031 RMK AO2 SLP270 T00561050

Decode

TAF

TAF KPWT 112320Z 1200/1224 02008KT P6SM SKC FM120400 03004KT P6SM SCT250 FM121800 03012G18KT P6SM SKC

Decode

Destination Runways

ID Width Length Bearing (true/mag) Surface Threshold Overrun Markings Lighting
01 151 ft / 46 m 5,997 ft / 1,828 m 32.69° / 17.38° ASPHALT 0 ft / 0 m 0 ft / 0 m APP EDGE THRESHOLD
19 151 ft / 46 m 5,997 ft / 1,828 m 212.70° / 197.39° ASPHALT 0 ft / 0 m 1,243 ft / 379 m PREC-APP EDGE THRESHOLD MALSR

Approach Navaids

Runway Type Ident Frequency Range Bearing (true/mag) Slope Elevation
19 LOC-ILS IPWT 111.10 MHz 18 nm / 33 km 212.69° / 197.39 ° - 444 ft / 135 m (AMSL)
19 GS IPWT 111.10 MHz 10 nm / 19 km 213.38° / 198.08 ° 3.00° 436 ft / 133 m (AMSL)
19 OM OM - - 212.69° / 197.39 ° - 444 ft / 135 m (AMSL)

Popular Alternatives